This is the latest recevied weather packets stored in our database for station/object KE4AMH. If no packets are shown the sender has not sent any weather packets the latest 10 day(s).
| Time | Temp. | Humidity | Pressure | Rain* | Wind** | Luminosity | Snow |
|---|---|---|---|---|---|---|---|
| 1778132539 | 17.22° C | 99% | 1012.7 hPa | 4.32 mm | - | 0 W/m² | - |
| 1778132236 | 17.78° C | 99% | 1013 hPa | 5.33 mm | - | 0 W/m² | - |
| 1778131934 | 17.78° C | 99% | 1013.5 hPa | 4.83 mm | - | 0 W/m² | - |
| 1778131632 | 17.78° C | 99% | 1013.4 hPa | 4.32 mm | - | 0 W/m² | - |
| 1778131328 | 17.78° C | 99% | 1013.6 hPa | 4.83 mm | - | 0 W/m² | - |
| 1778131026 | 17.78° C | 99% | 1013.1 hPa | 6.1 mm | - | 0 W/m² | - |
| 1778130723 | 17.78° C | 99% | 1013.6 hPa | 10.67 mm | - | 0 W/m² | - |
| 1778130419 | 17.78° C | 99% | 1013.6 hPa | 8.38 mm | - | 0 W/m² | - |
| 1778130116 | 17.78° C | 99% | 1013.7 hPa | 4.32 mm | - | 0 W/m² | - |
| 1778129813 | 17.78° C | 99% | 1013 hPa | 6.1 mm | - | 0 W/m² | - |
| 1778129509 | 17.78° C | 99% | 1013.4 hPa | 3.05 mm | - | 0 W/m² | - |
| 1778129207 | 17.78° C | 99% | 1013 hPa | 0.51 mm | - | 0 W/m² | - |
| 1778128903 | 17.78° C | 99% | 1012.8 hPa | 0.51 mm | - | 0 W/m² | - |
| 1778128599 | 17.78° C | 99% | 1012.7 hPa | 0 mm | - | 0 W/m² | - |
| 1778128297 | 17.78° C | 99% | 1012.6 hPa | 0.51 mm | - | 0 W/m² | - |
| 1778127993 | 17.78° C | 99% | 1012.6 hPa | 2.29 mm | - | 0 W/m² | - |
| 1778127688 | 17.78° C | 99% | 1012.9 hPa | 3.05 mm | - | 0 W/m² | - |
| 1778127385 | 17.78° C | 99% | 1013 hPa | 3.05 mm | - | 0 W/m² | - |
| 1778127082 | 17.78° C | 99% | 1013.3 hPa | 3.05 mm | - | 0 W/m² | - |
| 1778126779 | 17.78° C | 99% | 1013 hPa | 3.05 mm | - | 0 W/m² | - |
| 1778126475 | 17.78° C | 99% | 1012.9 hPa | 3.05 mm | - | 0 W/m² | - |
| 1778126171 | 17.78° C | 99% | 1013 hPa | 1.78 mm | - | 0 W/m² | - |
| 1778125867 | 17.78° C | 99% | 1013.2 hPa | 1.27 mm | - | 0 W/m² | - |
| 1778125564 | 17.78° C | 99% | 1012.8 hPa | 1.78 mm | - | 0 W/m² | - |
| 1778125262 | 17.78° C | 99% | 1013.3 hPa | 1.78 mm | - | 0 W/m² | - |
* Rain latest hour (hover to see other rain measurements)
** Current wind speed in m/s (hover to see current wind gust speed)